Time,TemperatureF,DewpointF,PressureIn,WindDirection,WindDirectionDegrees,WindSpeedMPH,WindSpeedGustMPH,Humidity,HourlyPrecipIn,Conditions,Clouds,dailyrainin,SolarRadiationWatts/m^2,SoftwareType,DateUTC
2013-03-13 00:06:00,55.5,26.0,30.14,ENE,73,1.0,5.0,32,0.00,,,0.00,0,weatherlink.com 1.10,2013-03-13 06:06:00,
2013-03-13 00:36:00,55.2,26.0,30.15,ENE,74,0.0,3.0,32,0.00,,,0.00,0,weatherlink.com 1.10,2013-03-13 06:36:00,
2013-03-13 00:51:00,54.6,26.0,30.15,ENE,74,0.0,2.0,33,0.00,,,0.00,0,weatherlink.com 1.10,2013-03-13 06:51:00,
2013-03-13 01:06:00,54.2,26.0,30.15,ENE,74,2.0,3.0,34,0.00,,,0.00,0,weatherlink.com 1.10,2013-03-13 07:06:00,
2013-03-13 01:22:00,54.0,26.0,30.15,ENE,74,0.0,5.0,34,0.00,,,0.00,0,weatherlink.com 1.10,2013-03-13 07:22:00,
2013-03-13 01:36:00,53.8,26.0,30.16,ENE,75,0.0,4.0,34,0.00,,,0.00,0,weatherlink.com 1.10,2013-03-13 07:36:00,
2013-03-13 01:52:00,53.2,25.0,30.16,ENE,76,1.0,3.0,34,0.00,,,0.00,0,weatherlink.com 1.10,2013-03-13 07:52:00,
2013-03-13 02:22:00,51.9,26.0,30.17,ENE,76,0.0,2.0,36,0.00,,,0.00,0,weatherlink.com 1.10,2013-03-13 08:22:00,
2013-03-13 02:37:00,51.5,25.0,30.16,ENE,75,1.0,2.0,36,0.00,,,0.00,0,weatherlink.com 1.10,2013-03-13 08:37:00,
2013-03-13 02:52:00,51.1,25.0,30.16,ENE,76,0.0,0.0,37,0.00,,,0.00,0,weatherlink.com 1.10,2013-03-13 08:52:00,
2013-03-13 03:07:00,51.3,25.0,30.16,ENE,76,1.0,2.0,36,0.00,,,0.00,0,weatherlink.com 1.10,2013-03-13 09:07:00,
2013-03-13 03:22:00,51.1,24.0,30.16,ENE,75,1.0,7.0,35,0.00,,,0.00,0,weatherlink.com 1.10,2013-03-13 09:22:00,
2013-03-13 03:37:00,50.9,24.0,30.16,ENE,75,1.0,5.0,35,0.00,,,0.00,0,weatherlink.com 1.10,2013-03-13 09:37:00,
2013-03-13 03:52:00,50.8,24.0,30.16,ENE,72,2.0,8.0,35,0.00,,,0.00,0,weatherlink.com 1.10,2013-03-13 09:52:00,
2013-03-13 04:07:00,50.5,24.0,30.16,ENE,70,4.0,7.0,35,0.00,,,0.00,0,weatherlink.com 1.10,2013-03-13 10:07:00,
2013-03-13 04:22:00,50.1,23.0,30.16,ENE,67,3.0,9.0,35,0.00,,,0.00,0,weatherlink.com 1.10,2013-03-13 10:22:00,
2013-03-13 04:37:00,49.7,24.0,30.15,ENE,67,3.0,5.0,36,0.00,,,0.00,0,weatherlink.com 1.10,2013-03-13 10:37:00,
2013-03-13 04:52:00,49.7,24.0,30.15,ENE,65,1.0,7.0,36,0.00,,,0.00,0,weatherlink.com 1.10,2013-03-13 10:52:00,
2013-03-13 05:07:00,49.2,23.0,30.15,ENE,65,1.0,2.0,36,0.00,,,0.00,0,weatherlink.com 1.10,2013-03-13 11:07:00,
2013-03-13 05:22:00,48.7,23.0,30.15,ENE,65,1.0,3.0,37,0.00,,,0.00,0,weatherlink.com 1.10,2013-03-13 11:22:00,
2013-03-13 05:37:00,47.2,23.0,30.16,ENE,65,1.0,1.0,38,0.00,,,0.00,0,weatherlink.com 1.10,2013-03-13 11:37:00,
2013-03-13 05:52:00,46.4,23.0,30.16,ENE,65,2.0,2.0,40,0.00,,,0.00,0,weatherlink.com 1.10,2013-03-13 11:52:00,
2013-03-13 06:07:00,46.3,23.0,30.17,ENE,65,0.0,3.0,40,0.00,,,0.00,0,weatherlink.com 1.10,2013-03-13 12:07:00,
2013-03-13 06:22:00,45.8,23.0,30.17,ENE,65,1.0,2.0,40,0.00,,,0.00,0,weatherlink.com 1.10,2013-03-13 12:22:00,
2013-03-13 06:37:00,45.7,23.0,30.18,ENE,65,0.0,4.0,41,0.00,,,0.00,0,weatherlink.com 1.10,2013-03-13 12:37:00,
2013-03-13 06:52:00,45.5,23.0,30.18,ENE,65,1.0,2.0,41,0.00,,,0.00,0,weatherlink.com 1.10,2013-03-13 12:52:00,
2013-03-13 07:07:00,45.0,23.0,30.19,ENE,65,1.0,1.0,42,0.00,,,0.00,0,weatherlink.com 1.10,2013-03-13 13:07:00,
2013-03-13 07:22:00,44.8,23.0,30.20,ENE,65,0.0,1.0,42,0.00,,,0.00,7,weatherlink.com 1.10,2013-03-13 13:22:00,
2013-03-13 07:37:00,44.9,23.0,30.21,ENE,65,0.0,1.0,42,0.00,,,0.00,16,weatherlink.com 1.10,2013-03-13 13:37:00,
2013-03-13 07:52:00,46.3,24.0,30.21,ENE,65,1.0,4.0,41,0.00,,,0.00,46,weatherlink.com 1.10,2013-03-13 13:52:00,
2013-03-13 08:07:00,48.1,24.0,30.22,ENE,65,1.0,3.0,39,0.00,,,0.00,95,weatherlink.com 1.10,2013-03-13 14:07:00,
2013-03-13 08:22:00,49.5,25.0,30.22,ENE,65,0.0,2.0,38,0.00,,,0.00,156,weatherlink.com 1.10,2013-03-13 14:22:00,
2013-03-13 08:38:00,51.1,24.0,30.22,ENE,64,1.0,8.0,35,0.00,,,0.00,218,weatherlink.com 1.10,2013-03-13 14:38:00,
2013-03-13 08:53:00,51.8,24.0,30.23,ENE,65,0.0,5.0,34,0.00,,,0.00,274,weatherlink.com 1.10,2013-03-13 14:53:00,
2013-03-13 09:08:00,52.7,25.0,30.23,ENE,64,2.0,7.0,34,0.00,,,0.00,329,weatherlink.com 1.10,2013-03-13 15:08:00,
2013-03-13 09:23:00,54.6,25.0,30.23,ENE,65,4.0,5.0,32,0.00,,,0.00,378,weatherlink.com 1.10,2013-03-13 15:23:00,
2013-03-13 09:38:00,55.9,25.0,30.23,ENE,68,1.0,8.0,31,0.00,,,0.00,429,weatherlink.com 1.10,2013-03-13 15:38:00,
2013-03-13 09:53:00,57.6,25.0,30.24,ENE,69,1.0,5.0,29,0.00,,,0.00,478,weatherlink.com 1.10,2013-03-13 15:53:00,
2013-03-13 10:08:00,58.2,25.0,30.24,East,79,5.0,8.0,28,0.00,,,0.00,522,weatherlink.com 1.10,2013-03-13 16:08:00,
2013-03-13 10:23:00,59.1,26.0,30.23,East,80,3.0,5.0,28,0.00,,,0.00,568,weatherlink.com 1.10,2013-03-13 16:23:00,
2013-03-13 10:38:00,60.9,27.0,30.23,East,80,3.0,4.0,27,0.00,,,0.00,608,weatherlink.com 1.10,2013-03-13 16:38:00,
2013-03-13 10:53:00,62.1,27.0,30.23,East,96,6.0,7.0,26,0.00,,,0.00,650,weatherlink.com 1.10,2013-03-13 16:53:00,
2013-03-13 11:08:00,63.0,27.0,30.23,East,99,3.0,7.0,25,0.00,,,0.00,686,weatherlink.com 1.10,2013-03-13 17:08:00,
2013-03-13 11:23:00,62.9,26.0,30.23,SE,134,3.0,12.0,25,0.00,,,0.00,719,weatherlink.com 1.10,2013-03-13 17:23:00,
2013-03-13 11:38:00,63.7,27.0,30.22,SE,142,2.0,9.0,25,0.00,,,0.00,749,weatherlink.com 1.10,2013-03-13 17:38:00,
2013-03-13 11:54:00,64.7,27.0,30.21,ESE,102,5.0,9.0,24,0.00,,,0.00,772,weatherlink.com 1.10,2013-03-13 17:54:00,
2013-03-13 12:09:00,65.1,27.0,30.21,SE,131,1.0,8.0,24,0.00,,,0.00,793,weatherlink.com 1.10,2013-03-13 18:09:00,
2013-03-13 12:24:00,66.6,28.0,30.20,ESE,123,7.0,8.0,23,0.00,,,0.00,812,weatherlink.com 1.10,2013-03-13 18:24:00,
2013-03-13 12:39:00,67.3,27.0,30.19,SE,138,5.0,7.0,22,0.00,,,0.00,826,weatherlink.com 1.10,2013-03-13 18:39:00,
2013-03-13 12:54:00,68.4,27.0,30.19,SE,137,2.0,7.0,21,0.00,,,0.00,835,weatherlink.com 1.10,2013-03-13 18:54:00,
2013-03-13 13:09:00,68.5,26.0,30.18,SE,137,1.0,6.0,20,0.00,,,0.00,840,weatherlink.com 1.10,2013-03-13 19:09:00,
2013-03-13 13:24:00,69.3,26.0,30.16,SE,142,0.0,4.0,20,0.00,,,0.00,844,weatherlink.com 1.10,2013-03-13 19:24:00,
2013-03-13 13:39:00,70.4,26.0,30.16,SE,145,0.0,8.0,19,0.00,,,0.00,835,weatherlink.com 1.10,2013-03-13 19:39:00,
2013-03-13 13:54:00,70.9,27.0,30.14,SSE,159,2.0,9.0,19,0.00,,,0.00,826,weatherlink.com 1.10,2013-03-13 19:54:00,
2013-03-13 14:09:00,71.7,23.0,30.14,SSE,153,1.0,4.0,16,0.00,,,0.00,817,weatherlink.com 1.10,2013-03-13 20:09:00,
2013-03-13 14:24:00,72.1,22.0,30.13,SSE,153,3.0,7.0,15,0.00,,,0.00,802,weatherlink.com 1.10,2013-03-13 20:24:00,
2013-03-13 14:39:00,73.7,25.0,30.12,SSE,147,3.0,5.0,16,0.00,,,0.00,784,weatherlink.com 1.10,2013-03-13 20:39:00,
2013-03-13 14:54:00,74.1,24.0,30.11,SE,144,3.0,6.0,15,0.00,,,0.00,758,weatherlink.com 1.10,2013-03-13 20:54:00,
2013-03-13 15:09:00,74.0,22.0,30.10,SE,139,2.0,8.0,14,0.00,,,0.00,735,weatherlink.com 1.10,2013-03-13 21:09:00,
2013-03-13 15:24:00,74.4,22.0,30.10,SE,140,0.0,6.0,14,0.00,,,0.00,698,weatherlink.com 1.10,2013-03-13 21:24:00,
2013-03-13 15:39:00,74.5,20.0,30.10,SE,136,1.0,7.0,13,0.00,,,0.00,659,weatherlink.com 1.10,2013-03-13 21:39:00,
2013-03-13 15:54:00,75.3,21.0,30.09,SE,135,3.0,5.0,13,0.00,,,0.00,619,weatherlink.com 1.10,2013-03-13 21:54:00,
2013-03-13 16:09:00,75.8,20.0,30.09,SE,135,1.0,6.0,12,0.00,,,0.00,580,weatherlink.com 1.10,2013-03-13 22:09:00,
2013-03-13 16:24:00,76.3,20.0,30.08,SE,132,4.0,5.0,12,0.00,,,0.00,534,weatherlink.com 1.10,2013-03-13 22:24:00,
2013-03-13 16:39:00,75.8,20.0,30.08,SE,138,3.0,7.0,12,0.00,,,0.00,489,weatherlink.com 1.10,2013-03-13 22:39:00,
2013-03-13 16:54:00,76.5,20.0,30.07,SE,139,1.0,4.0,12,0.00,,,0.00,439,weatherlink.com 1.10,2013-03-13 22:54:00,
2013-03-13 17:09:00,76.6,18.0,30.07,ESE,115,1.0,9.0,11,0.00,,,0.00,383,weatherlink.com 1.10,2013-03-13 23:09:00,
2013-03-13 17:24:00,76.4,20.0,30.07,SSE,153,1.0,6.0,12,0.00,,,0.00,338,weatherlink.com 1.10,2013-03-13 23:24:00,
2013-03-13 17:39:00,76.1,20.0,30.06,SSE,157,5.0,7.0,12,0.00,,,0.00,281,weatherlink.com 1.10,2013-03-13 23:39:00,
2013-03-13 17:54:00,75.8,20.0,30.05,SSE,157,1.0,5.0,12,0.00,,,0.00,225,weatherlink.com 1.10,2013-03-13 23:54:00,
2013-03-13 18:09:00,75.6,19.0,30.05,SSE,153,0.0,4.0,12,0.00,,,0.00,156,weatherlink.com 1.10,2013-03-14 00:09:00,
2013-03-13 18:25:00,75.1,21.0,30.05,SSE,161,2.0,9.0,13,0.00,,,0.00,32,weatherlink.com 1.10,2013-03-14 00:25:00,
2013-03-13 18:40:00,74.6,21.0,30.05,SSE,161,0.0,5.0,13,0.00,,,0.00,21,weatherlink.com 1.10,2013-03-14 00:40:00,
2013-03-13 18:55:00,74.0,20.0,30.05,SSE,159,2.0,4.0,13,0.00,,,0.00,14,weatherlink.com 1.10,2013-03-14 00:55:00,
2013-03-13 19:10:00,73.4,21.0,30.05,SSE,159,0.0,2.0,14,0.00,,,0.00,5,weatherlink.com 1.10,2013-03-14 01:10:00,
2013-03-13 19:25:00,72.6,21.0,30.05,SSE,159,0.0,0.0,14,0.00,,,0.00,0,weatherlink.com 1.10,2013-03-14 01:25:00,
2013-03-13 19:40:00,71.4,21.0,30.06,SSE,159,0.0,0.0,15,0.00,,,0.00,0,weatherlink.com 1.10,2013-03-14 01:40:00,
2013-03-13 19:55:00,70.5,21.0,30.06,SSE,159,0.0,0.0,15,0.00,,,0.00,0,weatherlink.com 1.10,2013-03-14 01:55:00,
2013-03-13 20:10:00,69.6,21.0,30.06,SSE,159,0.0,0.0,16,0.00,,,0.00,0,weatherlink.com 1.10,2013-03-14 02:10:00,
2013-03-13 20:25:00,68.5,20.0,30.07,SSE,159,0.0,0.0,16,0.00,,,0.00,0,weatherlink.com 1.10,2013-03-14 02:25:00,
2013-03-13 20:40:00,68.0,20.0,30.07,SSE,159,0.0,0.0,16,0.00,,,0.00,0,weatherlink.com 1.10,2013-03-14 02:40:00,
2013-03-13 20:55:00,67.4,21.0,30.07,SSE,159,0.0,2.0,17,0.00,,,0.00,0,weatherlink.com 1.10,2013-03-14 02:55:00,
2013-03-13 21:10:00,66.3,20.0,30.07,SSE,159,0.0,0.0,17,0.00,,,0.00,0,weatherlink.com 1.10,2013-03-14 03:10:00,
2013-03-13 21:40:00,65.4,21.0,30.08,SSE,159,1.0,2.0,18,0.00,,,0.00,0,weatherlink.com 1.10,2013-03-14 03:40:00,
2013-03-13 21:55:00,64.5,20.0,30.08,SSE,159,0.0,2.0,18,0.00,,,0.00,0,weatherlink.com 1.10,2013-03-14 03:55:00,
2013-03-13 22:10:00,63.6,19.0,30.09,SSE,159,2.0,3.0,18,0.00,,,0.00,0,weatherlink.com 1.10,2013-03-14 04:10:00,
2013-03-13 22:25:00,62.5,18.0,30.09,SSE,159,2.0,3.0,18,0.00,,,0.00,0,weatherlink.com 1.10,2013-03-14 04:25:00,
2013-03-13 22:40:00,62.1,18.0,30.09,SSE,159,2.0,3.0,18,0.00,,,0.00,0,weatherlink.com 1.10,2013-03-14 04:40:00,
2013-03-13 22:55:00,61.6,19.0,30.10,SSE,159,2.0,4.0,19,0.00,,,0.00,0,weatherlink.com 1.10,2013-03-14 04:55:00,
2013-03-13 23:10:00,61.1,17.0,30.10,SSE,157,3.0,4.0,18,0.00,,,0.00,0,weatherlink.com 1.10,2013-03-14 05:10:00,
2013-03-13 23:25:00,59.8,17.0,30.11,SSE,152,0.0,3.0,19,0.00,,,0.00,0,weatherlink.com 1.10,2013-03-14 05:25:00,
2013-03-13 23:40:00,59.0,18.0,30.10,SSE,152,0.0,0.0,20,0.00,,,0.00,0,weatherlink.com 1.10,2013-03-14 05:40:00,
2013-03-13 23:55:00,58.5,17.0,30.10,SSE,152,0.0,0.0,20,0.00,,,0.00,0,weatherlink.com 1.10,2013-03-14 05:55:00,